Location: Shandelee
(41.8790°N, 74.8713°W)
Time: 04:29:41
(UTC+00:00)

YAOGAN 6 - Pass Details

Date: 29 October 2020
Orbit: 465 x 503 km, 97.0° (Epoch: 23 November)

Event Time Altitude Azimuth Distance (km) Brightness Sun altitude
Rises 22:25:25 0° 175° (S) 2,564 6.3 -6.0°
Reaches altitude 10° 22:27:29 10° 179° (S) 1,692 5.5 -6.3°
Maximum altitude 22:31:06 60° 260° (W) 576 3.3 -7.0°
Drops below altitude 10° 22:34:46 10° 341° (NNW) 1,720 5.4 -7.7°
Sets 22:36:53 0° 345° (NNW) 2,611 6.3 -8.0°
